Avalon, CA

8:33 AM PDT on August 28, 2016 (GMT -0700)
Catalina

Weather History for KAVX - September, 2013

Change the Weather History Date:

Monday, September 30, 2013

  Actual Average Record
Temperature  
Mean Temperature 72 °F -  
Max Temperature 79 °F 70 °F 93 °F (2001)
Min Temperature 66 °F 57 °F 53 °F (2002)
Cooling Degree Days 6    
Growing Degree Days 22 (Base 50)    
Moisture  
Dew Point 35 °F    
Average Humidity 28    
Maximum Humidity 50    
Minimum Humidity 12    
Precipitation  
Precipitation 0.00 in - - ()
Sea Level Pressure  
Sea Level Pressure 29.90 in    
Wind  
Wind Speed 4 mph (NW)    
Max Wind Speed 13 mph    
Max Gust Speed 16 mph    
Visibility 10 miles    
Events      
Averages and records for this station are not official NWS values.
T = Trace of Precipitation, MM = Missing Value Source: NWS Daily Summary

Daily Weather History Graph

Daily Weather History Graph

Search for Another Location

Airport or City:

Trip Planner

Search our weather history database for the weather conditions in past years. The results will help you decide how hot, cold, wet, or windy it might be!

Date:

Astronomy

Sep. 30, 2013 Rise Set
Actual Time 6:47 AM PDT 6:38 PM PDT
Civil Twilight 6:22 AM PDT 7:03 PM PDT
Nautical Twilight 5:53 AM PDT 7:32 PM PDT
Astronomical Twilight 5:24 AM PDT 8:01 PM PDT
Moon 2:40 AM PDT (9/30) 4:02 PM PDT (9/30)
Length of Visible Light 12h 41m
Length of Day
11h 51m
Waning Crescent, 18% of the Moon is Illuminated
Sep 30
Waning Crescent
Oct 4
New
Oct 11
First Quarter
Oct 18
Full
Oct 26
Last Quarter

Hourly Weather History & Observations

Time (PDT) Temp. Dew Point Humidity Pressure Visibility Wind Dir Wind Speed Gust Speed Precip Events Conditions
12:51 AM 71.1 °F 19.9 °F 14% 29.95 in 10.0 mi ESE 3.5 mph - N/A   Unknown
1:51 AM 70.0 °F 14.0 °F 12% 29.94 in 10.0 mi Calm Calm - N/A   Clear
2:51 AM 70.0 °F 19.9 °F 15% 29.92 in 10.0 mi Calm Calm - N/A   Clear
3:51 AM 69.1 °F 19.0 °F 15% 29.92 in 10.0 mi Calm Calm - N/A   Clear
4:51 AM 73.0 °F 24.1 °F 16% 29.91 in 10.0 mi Calm Calm - N/A   Clear
5:51 AM 71.1 °F 27.0 °F 19% 29.92 in 10.0 mi NNE 5.8 mph - N/A   Clear
6:51 AM 71.1 °F 28.9 °F 21% 29.93 in 10.0 mi NNE 8.1 mph - N/A   Clear
7:51 AM 72.0 °F 30.0 °F 21% 29.94 in 10.0 mi North 8.1 mph - N/A   Clear
8:51 AM 73.9 °F 34.0 °F 23% 29.95 in 10.0 mi NNE 9.2 mph - N/A   Clear
9:51 AM 75.0 °F 37.0 °F 25% 29.95 in 10.0 mi NNE 5.8 mph - N/A   Clear
10:51 AM 77.0 °F 37.0 °F 24% 29.93 in 10.0 mi Variable 3.5 mph - N/A   Clear
11:51 AM 75.9 °F 50.0 °F 40% 29.93 in 10.0 mi West 5.8 mph - N/A   Clear
12:51 PM 73.9 °F 46.9 °F 38% 29.92 in 10.0 mi WSW 8.1 mph - N/A   Clear
1:51 PM 75.0 °F 37.9 °F 26% 29.89 in 10.0 mi WSW 11.5 mph - N/A   Clear
2:51 PM 75.9 °F 39.0 °F 26% 29.88 in 10.0 mi WSW 12.7 mph - N/A   Clear
3:51 PM 73.9 °F 37.9 °F 27% 29.87 in 10.0 mi WSW 9.2 mph - N/A   Clear
4:51 PM 75.0 °F 41.0 °F 29% 29.85 in 10.0 mi West 10.4 mph 16.1 mph N/A   Clear
5:51 PM 71.1 °F 46.9 °F 42% 29.85 in 10.0 mi West 6.9 mph - N/A   Clear
6:51 PM 71.1 °F 41.0 °F 34% 29.85 in 10.0 mi West 8.1 mph - N/A   Clear
7:51 PM 70.0 °F 42.1 °F 36% 29.85 in 10.0 mi WNW 5.8 mph - N/A   Clear
8:51 PM 70.0 °F 41.0 °F 35% 29.85 in 10.0 mi WNW 3.5 mph - N/A   Clear
9:51 PM 69.1 °F 42.1 °F 38% 29.86 in 10.0 mi Calm Calm - N/A   Clear
10:51 PM 66.9 °F 45.0 °F 45% 29.86 in 10.0 mi North 3.5 mph - N/A   Clear
11:51 PM 66.0 °F 46.9 °F 50% 29.86 in 10.0 mi NNW 3.5 mph - N/A   Clear